Home > Weather > Kingston > Past weeks

Flag for Norfolk Island Past Weather in Kingston, Norfolk Island — Yesterday and Last 2 Weeks

Now
64 °F

Passing clouds.


Feels Like: 64 °F
Forecast: 60 / 67 °F
Wind: 13 mph from Southwest

Location: Norfolk Island Airport

Current Time: May 31, 2016 at 7:04:52 PM

Latest Report: May 31, 2016 at 6:30 PM


Visibility: N/A

Pressure: 30.12 "Hg

Humidity: 56%

Dew Point: 48 °F

Location of KingstonLocation

Past Weather in Kingston — Graph

°F

Kingston Temperature Yesterday

Maximum temperature yesterday: 70 °F (at 10:30 AM)
Minimum temperature yesterday: 64 °F (at 2:00 AM)
Average temperature yesterday: 67 °F

High & Low Weather Summary for the Past Weeks

 TemperatureHumidityPressure
High73 °F (May 19, 11:30 AM)100% (May 20, 3:30 AM)30.15 "Hg (May 20, 3:30 AM)
Low61 °F (May 17, 10:00 PM)46% (May 21, 11:04 AM)29.74 "Hg (May 28, 2:00 AM)
Average67 °F72%29.97 "Hg
* Reported May 16 5:00 PM — May 31 5:30 PM, Kingston, Weather by CustomWeather, © 2016

Note: Actual official high and low records may vary slightly from our data, if they occured in-between our weather recording intervals... More about our weather records

Advertising

Kingston Weather History for the Previous 24 Hours

Scroll right to see more
 ConditionsComfort  
Time TempWeatherWind HumidityBarometerVisibility
5:30 PM
Tue, May 31
64 °FPassing clouds.13 mph60%30.09 "HgN/A
5:00 PM64 °FPassing clouds.13 mph56%30.09 "HgN/A
4:30 PM64 °FPassing clouds.13 mph60%30.09 "HgN/A
4:00 PM64 °FPassing clouds.12 mph60%30.09 "HgN/A
3:30 PM66 °FPassing clouds.15 mph56%30.09 "HgN/A
3:00 PM66 °FPassing clouds.15 mph52%30.09 "HgN/A
2:30 PM68 °FPassing clouds.15 mph53%30.09 "HgN/A
2:00 PM68 °FPassing clouds.15 mph56%30.09 "HgN/A
1:30 PM68 °FPassing clouds.14 mph56%30.09 "HgN/A
1:00 PM68 °FPassing clouds.13 mph56%30.09 "HgN/A
12:30 PM68 °FPassing clouds.15 mph56%30.09 "HgN/A
12:00 PM68 °FPassing clouds.13 mph60%30.12 "HgN/A
11:30 AM66 °FPassing clouds.14 mph60%30.12 "HgN/A
11:00 AM68 °FPassing clouds.13 mph60%30.15 "HgN/A
10:30 AM66 °FPassing clouds.13 mph60%30.15 "HgN/A
10:00 AM66 °FPassing clouds.13 mph60%30.15 "HgN/A
9:30 AM66 °FPassing clouds.12 mph60%30.15 "HgN/A
9:00 AM64 °FScattered showers. Passing clouds.10 mph73%30.15 "HgN/A
8:30 AM66 °FSprinkles. Passing clouds.9 mph68%30.15 "HgN/A
8:00 AM64 °FSprinkles. Scattered clouds.14 mph68%30.15 "HgN/A
7:30 AM64 °FBroken clouds.12 mph68%30.12 "HgN/A
7:00 AM64 °FBroken clouds.10 mph68%30.12 "HgN/A
6:00 AM64 °FScattered clouds.14 mph60%30.09 "HgN/A
5:00 AM64 °FPassing clouds.13 mph64%30.09 "HgN/A
4:30 AM64 °FClear.14 mph60%30.09 "HgN/A
4:00 AM64 °FPartly cloudy.14 mph68%30.09 "HgN/A
3:30 AM64 °FPassing clouds.14 mph60%30.09 "HgN/A
3:00 AM64 °FPassing clouds.13 mph60%30.09 "HgN/A
2:30 AM64 °FPassing clouds.12 mph64%30.09 "HgN/A
2:00 AM64 °FPartly cloudy.12 mph64%30.09 "HgN/A
1:00 AM64 °FMostly cloudy.12 mph68%30.09 "HgN/A
12:30 AM61 °FOvercast.7 mph88%30.09 "HgN/A
12:00 AM61 °FOvercast.7 mph83%30.12 "HgN/A
11:00 PM
Mon, May 30
64 °FPartly cloudy.13 mph64%30.09 "HgN/A
10:00 PM64 °FPassing clouds.9 mph73%30.09 "HgN/A
9:00 PM64 °FPassing clouds.16 mph73%30.09 "HgN/A
8:00 PM64 °FPassing clouds.10 mph68%30.09 "HgN/A
7:00 PM64 °FPassing clouds.12 mph73%30.09 "HgN/A
Weather by CustomWeather, © 2016

See weather overviewHow to use our weather pages